STARLINK-1910 (46748 NORAD) Tracking and Keplerian Element Data

This shows tracking and keplerian element data for the satellite.

Feedback or suggestion? Click here.




ElementValue
Catalog46748
NameSTARLINK-1910
Epoch Orbit1430
Epoch Day21.16668981
Epoch Year2021
RAAN92.1753
Inclination53.0552
Eccentricity0.0005585
Argument of Perigee270.0585
Mean Anonmoly22.1896
Mean Motion15.06333996
Decay Rate-0.00072607
L11 46748U 20074K 21021.16668981 -.00072607 00000-0 -49122-2 0 9997
L22 46748 53.0552 92.1753 0005585 270.0585 22.1896 15.06333996 14309

Live tracking and technical data element details for STARLINK-1910 (NORAD 46748). STARLINK-1910 can be tracked NOW for your location showing map with azimuth and elevation plus other details from your city location.

Track the satellite on the map from your city or location and see movement details for azimuth, elevation, latitude, longitude, range, height, and movement on the map or in text.







IsCatalogInMostPopularTable: catalog: 46748, numindb: 29
Update: records affected: 1



GetName: 46748 STARLINK-1910

Hit Count: updated at: Fri, 22 Jan 2021 18:04:39 GMT